Showing default

COSMOS 87, 1585

Orbit data source: Space-Track

COSMOS 87, 1585 is a payload satellite owned by OKB-10 (CIS) in LEO that was launched on Sat, 18 Sep 1965 UTC via a KOSMOS 65S3 launch vehicle from the Tyuratam Missile And Space Complex (TTMTR). Payload-class satellites include a variety of spacecraft equipped with specific instruments for various scientific and technological missions. These include communications satellites like Starlink; space stations such as the ISS; scientific satellites like the Hubble; Earth observation satellites from companies like Planet Labs, Umbra, and HawkEye 360; GPS; miniature CubeSats for education and research; and military/defense satellites.

Loading next visibility...
Identifier
1585, 1965-073B
Orbit
LEO
Country
Flag of CISCIS
Related business
Manufacturer
OKB-10
Mission
Defense Communications
Bus & Motor
STRELA-1 11F610, Unknown motor
Mass
50 kg wet, 50 kg dry
Launch date (UTC)
Icon of a cake. It is the launch day of the satellite!1965-09-18 (60 years ago)
Launch vehicle
KOSMOS 65S3
Launch site
Tyuratam Missile And Space Complex (TTMTR)
Object type
Payload
Rocket body
Debris
Shape & HBR
Poly, 0.4 m
Radar Cross Section
0.731 m², Medium (>0.1 m² and < 1m²)

Expand to show TLE details & history
Last TLE update: 19 hours ago

TLE from 19 hours ago
0 COSMOS 87
1 01585U 65073B   25260.48489515 -.00000069  00000-0  16405-3 0  9994
2 01585  56.0608 296.6991 0204670  21.6334  91.9854 12.47458564731728
Epoch: 2025-09-17T11:38Z
TLE epoch observation values (Epoch: 2025-09-17T11:38:14.94Z)
Latitude
48.36217°
Longitude
-103.39746°
Altitude
1,489.822 km
Speed
7.12 km/s
True Right ascension
04h 31m 17s
True Declination
48° 12' 26"
Sunlit
Object was in daylight at epoch
Visualization orbit readout
Latitude
Unknown
Longitude
Unknown
Altitude
Unknown
Speed
Unknown
Apparent Right ascension
Unknown
Apparent Declination
Unknown
Sunlit
N/A
Visualization observer readout
Local Sidereal Time
23:18:47
Azimuth
Unknown
Elevation
Unknown
Doppler factor
Unknown
Orbital elements
Apogee altitude
1,635.695 km
Perigee altitude
1,314.236 km
Semi-major axis
7,853.103 km
Eccentricity
0.02047
Inclination
56.0608°
RAAN
296.6991°
Arg. of periapsis
21.6334°
True anomaly
94.32661°
Mean anomaly
91.9854°
Eccentric anomaly
93.15629°
Mean motion
3.11875 °/min
Orbital period
115.43 mins
BSTAR
0.00016405
Loading maneuver chart data...
Computing Atmospheric mass density...
Loading historical data...
Loading historical data...
Loading historical data...
Loading historical data...
Loading historical data...
Loading historical data...
Loading historical data...

Documentation

Showing up to 5 results
|